Portsmouth, NH

4:01 AM EDT on May 28, 2017 (GMT -0400)
Pease International Tradeport

Weather History for KPSM - November, 2012

Change the Weather History Date:

Tuesday, November 13, 2012

  Actual Average Record
Temperature  
Mean Temperature 50 °F -  
Max Temperature 60 °F 46 °F 66 °F (1982)
Min Temperature 40 °F 30 °F 15 °F (1981)
Degree Days  
Heating Degree Days 15    
Moisture  
Dew Point 46 °F    
Average Humidity 84    
Maximum Humidity 95    
Minimum Humidity 59    
Precipitation  
Precipitation 0.18 in - - ()
Sea Level Pressure  
Sea Level Pressure 30.22 in    
Wind  
Wind Speed 10 mph (West)    
Max Wind Speed 16 mph    
Max Gust Speed 28 mph    
Visibility 9 miles    
Events Rain    
Averages and records for this station are not official NWS values.
T = Trace of Precipitation, MM = Missing Value Source: NWS Daily Summary

Daily Weather History Graph

Daily Weather History Graph

Search for Another Location

Airport or City:

Trip Planner

Search our weather history database for the weather conditions in past years. The results will help you decide how hot, cold, wet, or windy it might be!

Date:

Astronomy

Nov. 13, 2012 Rise Set
Actual Time 6:33 AM EST 4:20 PM EST
Civil Twilight 6:03 AM EST 4:51 PM EST
Nautical Twilight 5:29 AM EST 5:25 PM EST
Astronomical Twilight 4:55 AM EST 5:59 PM EST
Moon 6:08 AM EST (11/13) 4:10 PM EST (11/13)
Length of Visible Light 10h 47m
Length of Day
9h 46m
Waning Crescent, 0% of the Moon is Illuminated
Nov 13
Waning Crescent
Nov 13
New
Nov 20
First Quarter
Nov 28
Full
Dec 6
Last Quarter

Hourly Weather History & Observations

Time (EST) Temp. Windchill Dew Point Humidity Pressure Visibility Wind Dir Wind Speed Gust Speed Precip Events Conditions
12:55 AM 59.0 °F - 56.5 °F 91% 30.19 in 10.0 mi South 12.7 mph 20.7 mph N/A   Mostly Cloudy
1:41 AM 59.0 °F - 57.2 °F 94% 30.18 in 10.0 mi SSE 11.5 mph - N/A   Mostly Cloudy
1:55 AM 58.6 °F - 57.0 °F 94% 30.17 in 10.0 mi SSE 11.5 mph - N/A   Mostly Cloudy
2:55 AM 58.6 °F - 57.2 °F 95% 30.14 in 10.0 mi SSE 9.2 mph - N/A   Overcast
3:55 AM 59.5 °F - 58.1 °F 95% 30.11 in 10.0 mi SSE 13.8 mph - N/A   Overcast
4:55 AM 60.1 °F - 58.5 °F 94% 30.11 in 10.0 mi South 8.1 mph - N/A   Overcast
5:55 AM 60.1 °F - 58.1 °F 93% 30.10 in 10.0 mi SSE 6.9 mph - N/A   Overcast
6:55 AM 60.3 °F - 57.9 °F 92% 30.10 in 10.0 mi South 9.2 mph - N/A   Overcast
7:04 AM 60.8 °F - 57.2 °F 88% 30.12 in 10.0 mi West 16.1 mph 27.6 mph N/A Rain Light Rain Showers
7:28 AM 55.4 °F - 51.8 °F 88% 30.14 in 10.0 mi WNW 12.7 mph - N/A   Mostly Cloudy
7:39 AM 55.4 °F - 51.8 °F 88% 30.16 in 10.0 mi WNW 8.1 mph - N/A Rain Light Rain Showers
7:55 AM 53.8 °F - 49.8 °F 86% 30.16 in 10.0 mi WNW 11.5 mph - 0.04 in Rain Light Rain Showers
8:14 AM 53.6 °F - 50.0 °F 88% 30.16 in 10.0 mi NW 11.5 mph - N/A   Overcast
8:55 AM 52.2 °F - 47.1 °F 83% 30.17 in 10.0 mi WNW 8.1 mph - 0.00 in Rain Light Rain Showers
9:34 AM 51.8 °F - 48.2 °F 88% 30.19 in 2.0 mi West 8.1 mph - N/A Rain Light Rain Showers
9:55 AM 50.5 °F - 48.0 °F 91% 30.22 in 3.0 mi West 6.9 mph - 0.01 in Rain Light Rain Showers
10:55 AM 50.4 °F - 48.7 °F 94% 30.21 in 7.0 mi West 5.8 mph - 0.03 in Rain Light Rain Showers
11:40 AM 50.0 °F - 46.4 °F 87% 30.19 in 10.0 mi West 5.8 mph - N/A   Overcast
11:55 AM 49.6 °F - 46.6 °F 89% 30.20 in 10.0 mi West 6.9 mph - 0.01 in   Overcast
12:35 PM 50.0 °F - 46.4 °F 87% 30.19 in 10.0 mi WNW 5.8 mph - N/A   Overcast
12:48 PM 48.2 °F - 44.6 °F 87% 30.20 in 10.0 mi West 8.1 mph - N/A Rain Light Rain Showers
12:55 PM 48.7 °F - 44.4 °F 85% 30.20 in 6.0 mi WNW 8.1 mph - 0.00 in Rain Light Rain Showers
1:45 PM 44.6 °F 38.1 °F 41.0 °F 87% 30.22 in 10.0 mi West 13.8 mph - N/A Rain Light Rain Showers
1:55 PM 44.6 °F 39.7 °F 40.1 °F 84% 30.23 in 10.0 mi West 9.2 mph - 0.06 in Rain Light Rain Showers
2:55 PM 43.7 °F 39.7 °F 39.7 °F 86% 30.25 in 10.0 mi West 6.9 mph - 0.03 in Rain Light Rain Showers
3:55 PM 43.3 °F 38.6 °F 37.4 °F 80% 30.26 in 10.0 mi WNW 8.1 mph - 0.00 in Rain Light Rain Showers
4:55 PM 42.8 °F 37.0 °F 36.3 °F 78% 30.28 in 10.0 mi WNW 10.4 mph - 0.00 in Rain Light Rain Showers
5:55 PM 42.4 °F 38.8 °F 34.2 °F 72% 30.32 in 10.0 mi WNW 5.8 mph - 0.00 in   Mostly Cloudy
6:55 PM 41.9 °F 38.2 °F 33.1 °F 71% 30.34 in 10.0 mi West 5.8 mph - N/A   Mostly Cloudy
7:55 PM 41.0 °F 36.4 °F 32.4 °F 71% 30.37 in 10.0 mi WNW 6.9 mph - N/A   Overcast
8:55 PM 40.6 °F 35.4 °F 32.4 °F 72% 30.39 in 10.0 mi NW 8.1 mph - N/A   Overcast
9:55 PM 41.4 °F 36.8 °F 30.6 °F 65% 30.41 in 10.0 mi NNE 6.9 mph - N/A   Overcast
10:55 PM 41.0 °F 35.8 °F 28.6 °F 61% 30.42 in 10.0 mi NNE 8.1 mph - N/A   Overcast
11:55 PM 40.5 °F 36.5 °F 27.1 °F 59% 30.43 in 10.0 mi NNE 5.8 mph - N/A   Overcast